[Iaude] MPEC R92: 2023 RS2 [a=0.98,e=0.11,i=4.0,H=24.0]

mpec at marsden.cfa.harvard.edu mpec at marsden.cfa.harvard.edu
Sun Sep 10 00:10:04 EDT 2023


M.P.E.C. 2023-R92                            Issued 2023 September 10, 04:08 UT

     The Minor Planet Electronic Circulars contain information on unusual
         minor planets, routine data on comets and natural satellites,
         and occasional editorial announcements.  They are published
    on behalf of Division F of the International Astronomical Union by the
          Minor Planet Center, Smithsonian Astrophysical Observatory,
                          Cambridge, MA 02138, U.S.A.
			  
             Prepared using the Tamkin Foundation Computer Network

                              MPC at CFA.HARVARD.EDU
            URL https://www.minorplanetcenter.net/    ISSN 1523-6714

                                    2023 RS2                                    


Observations:
     K23R02S  C2023 09 08.41645800 48 58.559+31 36 39.14         20.75wXER092F52
     K23R02S* C2023 09 08.41772800 48 58.380+31 36 37.67         20.72wXER092F52
     K23R02S  C2023 09 08.42789500 48 56.971+31 36 25.73         20.58wXER092F52
     K23R02S  C2023 09 08.42916400 48 56.794+31 36 24.26         20.75wXER092F52
     K23R02S  C2023 09 08.43935400 48 55.368+31 36 12.15         20.68wXER092F52
     K23R02S  C2023 09 08.44062300 48 55.192+31 36 10.61         20.89wXER092F52
     K23R02S  C2023 09 08.45082800 48 53.748+31 35 58.25         21.14wXER092F52
     K23R02S  C2023 09 08.45209700 48 53.578+31 35 56.70         21.11wXER092F52
     K23R02S  C2023 09 08.53853300 48 41.153+31 34 04.77         20.31GVER092F51
     K23R02S  C2023 09 08.53917900 48 41.064+31 34 03.91         20.36GVER092F51
     K23R02S  C2023 09 08.53982100 48 40.971+31 34 03.02         20.38GVER092F51
     K23R02S  C2023 09 08.54046100 48 40.877+31 34 02.11         20.35GVER092F51
     K23R02S KB2023 09 08.83828 00 48 15.10 +31 26 29.2          20.3 RZER092106
     K23R02S KB2023 09 08.84736 00 48 14.07 +31 26 19.3          20.6 RZER092106
     K23R02S KB2023 09 08.85628 00 48 13.01 +31 26 08.3          21.2 RZER092106
     K23R02S KB2023 09 08.86504 00 48 11.93 +31 25 58.1          21.8 RZER092106
     K23R02S KC2023 09 09.03955100 47 50.009+31 22 07.50         19.8 GVER092J95
     K23R02S KC2023 09 09.04559200 47 49.198+31 21 59.26         20.5 GVER092J95
     K23R02S pC2023 09 09.07924800 47 43.34 +31 21 21.4          20.8 GVER092L01
     K23R02S 1C2023 09 09.08167 00 47 43.34 +31 21 09.8          20.9 VXER092033
     K23R02S pC2023 09 09.08177100 47 43.09 +31 21 17.8          20.6 GVER092L01
     K23R02S 1C2023 09 09.08288 00 47 43.19 +31 21 08.0          20.7 VXER092033
     K23R02S 1C2023 09 09.08409 00 47 43.03 +31 21 06.4          21.0 VXER092033
     K23R02S pC2023 09 09.08469100 47 42.59 +31 21 13.6          20.9 GVER092L01
     K23R02S pC2023 09 09.08845200 47 42.08 +31 21 07.9          21.0 GVER092L01
     K23R02S KC2023 09 09.94255 00 46 11.65 +31 00 47.7                VER092204
     K23R02S KC2023 09 09.95457 00 46 09.98 +31 00 31.0                VER092204
     K23R02S KC2023 09 09.96659 00 46 08.29 +31 00 14.4          20.2 GVER092204

Observer details:
033 Karl Schwarzschild Observatory, Tautenburg.  Observers S. Melnikov, C.
    Hoegner, F. Ludwig, M. Hartmann, B. Stecklum.  Measurer B. Stecklum.
    1.34-m f/3 Schmidt + CCD.
106 Crni Vrh.  Observer H. Mikuz.  0.60-m f/3.3 reflector + CMO.
204 Schiaparelli Observatory.  Observers L. Buzzi, G. Galli.  0.84-m f/3.5
    reflector + CCD.
F51 Pan-STARRS 1, Haleakala.  Observers J. Bulger, K. Chambers, T. Lowe, P.
    Minguez, A. Schultz, I. Smith.  Measurers S. Chastel, J. Fairlamb, M.
    Huber, Y. Ramanjooloo, R. Wainscoat, R. Weryk.  1.8-m Ritchey-Chretien +
    CCD.
F52 Pan-STARRS 2, Haleakala.  Observers J. Bulger, T. Lowe, P. Minguez, A.
    Schultz, I. Smith.  Measurers K. Chambers, T. de Boer, J. Bulger, J.
    Fairlamb, H. Gao, M. Huber, C.-C. Lin, T. Lowe, E. Magnier, P. Minguez, Y.
    Ramanjooloo, A. Schultz, I. Smith, R. Wainscoat, R. Weryk.  1.8-m Ritchey-
    Chretien + CCD.
J95 Great Shefford.  Observer P. Birtwhistle.  0.41-m f/6.3 Schmidt-Cassegrain
    + CCD.
L01 Visnjan Observatory, Tican.  Observer K. Korlevic.  1.0-m f/2.9 reflector
    + CCD.

Orbital elements:
2023 RS2                                                 Earth MOID = 0.0470 AU
Epoch 2023 Sept. 13.0 TT = JDT 2460200.5                Veres                   
M 180.17045              (2000.0)            P               Q                  
n   1.01820832     Peri.  330.09955     -0.98954379     -0.14186640             
a   0.9785393      Node   201.79040     +0.14228788     -0.93065994             
e   0.1067262      Incl.    4.01932     +0.02360589     -0.33726250             
P   0.97           H   24.05          G   0.15           U   9                  
Residuals in seconds of arc
230908 F52  0.2-  0.1+    230908 F51  0.0   0.0     230909 L01  0.7+  0.3+
230908 F52  0.2-  0.1+    230908 F51  0.0   0.0     230909 033  0.0   0.1-
230908 F52  0.2-  0.0     230908 106  0.7-  0.2-    230909 033  0.0   0.0
230908 F52  0.2-  0.1+    230908 106  0.2-  0.5+    230909 L01  0.5-  0.4+
230908 F52  0.2-  0.1+    230908 106  0.1-  0.1-    230909 L01  0.5-  0.1+
230908 F52  0.2-  0.0     230908 106  0.3-  0.0     230909 204  0.0   0.1+
230908 F52  0.2-  0.0     230909 J95  0.2+  0.1-    230909 204  0.0   0.2-
230908 F52  0.1-  0.0     230909 J95  0.2+  0.2-    230909 204  0.0   0.2-
230908 F51  0.0   0.0     230909 L01  0.5-  0.3+
230908 F51  0.1+  0.0     230909 033  0.2-  0.1-

Ephemeris:
2023 RS2                 a,e,i = 0.98, 0.11, 4                   q = 0.8741
Date    TT    R. A. (2000) Decl.     Delta      r    Elong.  Phase     V
2023 08 11    01 01 24.0 +33 56 15   0.1482  1.0686   107.9    64.5    22.3
...
2023 08 26    01 03 04.4 +34 16 03   0.1244  1.0787   120.2    54.1    21.7
...
2023 09 03    00 56 46.0 +33 09 30   0.1111  1.0817   128.5    46.8    21.2
...
2023 09 09    00 47 53.5 +31 23 33   0.1016  1.0828   135.9    40.3    20.8
2023 09 10    00 46 02.5 +30 59 52   0.1001  1.0829   137.3    39.1    20.8
2023 09 11    00 44 05.1 +30 34 15   0.09862 1.0829   138.6    37.9    20.7
...
2023 09 17    00 30 17.9 +27 15 47   0.09048 1.0827   147.5    30.0    20.3
...
2023 09 25    00 07 58.8 +20 42 09   0.08256 1.0810   159.8    18.7    19.8
...
2023 10 10    23 26 55.5 +03 53 39   0.08023 1.0731   156.9    21.5    19.8

M. P. C. Staff               (C) Copyright 2023 MPC           M.P.E.C. 2023-R92





More information about the Iaude mailing list